^^
Datos históricos de la estación: Murcia-Puente Tocinos
Diario Informe para Julio 21, 2019 Unidades:  Inglés    Métrico   Ambas
Diario Semanal Mensual Anual Configurable
  Máximo: Mínimo: Media:
Temperatura: 91 °F 76.8 °F 83.5 °F
Punto de rocio: 69.4 °F 55.9 °F 62.4 °F
Humedad: 70% 32% 50%
Velocidad viento: 15.2mph 0mph 7.3mph
Racha viento: 27mph - -
Viento- - ESE
Presión: 30.1 in 30 in -
Precipitación: 0 in    
Historical Graphs
 
 
Tabla de datos para Julio 21, 2019
Hora Temperatura Punto de rocio Presión Viento Velocidad viento Racha viento Humedad Intensidad lluvia(por hora) Nubes
00:00 80.1 °F 65.5 °F 30 in NE 5 mph 7 mph 61% 0 in CLR
00:05 80.1 °F 65.5 °F 30 in NE 5 mph 7 mph 61% 0 in CLR
00:10 80.1 °F 65.5 °F 30 in NE 3 mph 5 mph 61% 0 in CLR
00:15 80.1 °F 65.5 °F 30 in NE 3 mph 3 mph 61% 0 in CLR
00:20 80.1 °F 65.5 °F 30 in Calm   2 mph 61% 0 in CLR
00:25 80.1 °F 65.5 °F 30 in Calm     61% 0 in CLR
00:30 79.9 °F 65.1 °F 30 in Calm     61% 0 in CLR
00:35 79.9 °F 65.1 °F 30 in Calm     61% 0 in CLR
00:40 79.9 °F 65.1 °F 30 in Calm     61% 0 in CLR
00:45 79.9 °F 65.1 °F 30 in Calm   5 mph 61% 0 in CLR
00:50 79.7 °F 64.6 °F 30 in WNW 2 mph 5 mph 60% 0 in CLR
00:55 79.7 °F 64.6 °F 30 in WNW 2 mph 5 mph 60% 0 in CLR
01:00 79.7 °F 64.6 °F 30 in West 2 mph 5 mph 60% 0 in CLR
01:05 79.9 °F 64.2 °F 30 in West 2 mph 7 mph 59% 0 in CLR
01:10 79.9 °F 64.2 °F 30 in West 3 mph 6 mph 59% 0 in CLR
01:15 80.1 °F 64 °F 30 in West 3 mph 5 mph 58% 0 in CLR
01:20 80.1 °F 64 °F 30 in West 2 mph 3 mph 58% 0 in CLR
01:25 80.2 °F 63.7 °F 30 in West 2 mph   57% 0 in CLR
01:30 80.2 °F 63.1 °F 30 in Calm     56% 0 in CLR
01:35 80.4 °F 63.9 °F 30 in Calm     57% 0 in CLR
01:40 80.6 °F 64 °F 30 in Calm     57% 0 in CLR
01:45 80.6 °F 64 °F 30 in Calm   3 mph 57% 0 in CLR
01:50 80.8 °F 64 °F 30 in SE 2 mph 5 mph 57% 0 in CLR
01:55 80.6 °F 63.5 °F 30 in SW 1.8 mph 5.8 mph 56% 0 in CLR
02:00 80.8 °F 64 °F 30 in SW 3 mph 5 mph 57% 0 in CLR
02:05 80.4 °F 63.9 °F 30 in SSW 3 mph 5 mph 57% 0 in CLR
02:10 80.4 °F 64.2 °F 30 in SSW 3.6 mph 5.8 mph 58% 0 in CLR
02:15 80.2 °F 64 °F 30 in SSW 3 mph 6 mph 58% 0 in CLR
02:20 80.1 °F 64 °F 30 in West 3.6 mph 6.9 mph 58% 0 in CLR
02:25 79.9 °F 64.2 °F 30 in SW 3 mph 9 mph 59% 0 in CLR
02:30 79.9 °F 64.2 °F 30 in SW 5 mph 9 mph 59% 0 in CLR
02:35 79.7 °F 64 °F 30 in SW 5 mph 7 mph 59% 0 in CLR
02:40 79.5 °F 63.9 °F 30 in SW 4.7 mph 6.9 mph 59% 0 in CLR
02:45 79.3 °F 63.9 °F 30 in SW 5 mph 7 mph 59% 0 in CLR
02:50 79.3 °F 63.9 °F 30 in SSW 4 mph 5.8 mph 59% 0 in CLR
02:55 79.3 °F 63.9 °F 30 in SW 5 mph 6 mph 59% 0 in CLR
03:00 79.3 °F 63.9 °F 30 in SW 5 mph 6 mph 59% 0 in CLR
03:05 79.2 °F 63.7 °F 30 in SW 5 mph 6 mph 59% 0 in CLR
03:10 79.2 °F 63.7 °F 30 in WSW 4 mph 5.9 mph 59% 0 in CLR
03:15 79.2 °F 63.1 °F 30 in SW 5 mph 7 mph 58% 0 in CLR
03:20 79.2 °F 63.7 °F 30 in SW 5 mph 7 mph 59% 0 in CLR
03:25 79 °F 63.9 °F 30 in SSW 5 mph 9 mph 60% 0 in CLR
03:30 78.6 °F 63.1 °F 30 in SSW 5.2 mph 8.1 mph 59% 0 in CLR
03:35 78.6 °F 63.7 °F 30 in SSW 5 mph 9 mph 60% 0 in CLR
03:39 78.4 °F 63 °F 30 in SW 4.7 mph 4.6 mph 59% 0 in CLR
03:45 78.4 °F 63 °F 30 in SW 5 mph 8 mph 59% 0 in CLR
03:50 78.4 °F 63 °F 30 in SW 4.3 mph 8.1 mph 59% 0 in CLR
03:55 78.3 °F 62.8 °F 30 in SSW 5 mph 8 mph 59% 0 in CLR
04:00 78.3 °F 62.8 °F 30 in SSE 3 mph 5 mph 59% 0 in CLR
04:05 78.3 °F 62.8 °F 30 in SSE 3 mph 8 mph 59% 0 in CLR
04:10 78.1 °F 62.6 °F 30 in SSW 5 mph 9 mph 59% 0 in CLR
04:15 78.3 °F 62.8 °F 30 in SSW 4.3 mph 1.4 mph 59% 0 in CLR
04:20 78.3 °F 62.2 °F 30 in SSW 3 mph 7 mph 58% 0 in CLR
04:25 78.1 °F 62.1 °F 30 in SSW 3 mph 6 mph 58% 0 in CLR
04:30 78.1 °F 62.1 °F 30 in South 2 mph 5 mph 58% 0 in CLR
04:35 78.1 °F 62.6 °F 30 in South 2 mph 6 mph 59% 0 in CLR
04:40 77.9 °F 62.4 °F 30 in SSW 3 mph 6 mph 59% 0 in CLR
04:45 77.7 °F 62.2 °F 30 in South 3 mph 6 mph 59% 0 in CLR
04:50 77.7 °F 62.2 °F 30 in SSW 2 mph 5 mph 59% 0 in CLR
04:55 77.7 °F 62.2 °F 30 in SW 2 mph 5 mph 59% 0 in CLR
05:00 77.7 °F 62.2 °F 30 in SW 3 mph 6 mph 59% 0 in CLR
05:05 77.7 °F 61.9 °F 30 in SSW 3 mph 6 mph 58% 0 in CLR
05:10 77.7 °F 62.2 °F 30 in SSW 5 mph 7 mph 59% 0 in CLR
05:15 77.5 °F 62.1 °F 30 in SSW 5 mph 6 mph 59% 0 in CLR
05:20 77.5 °F 62.1 °F 30 in SSW 4 mph 6.9 mph 59% 0 in CLR
05:25 77.5 °F 62.1 °F 30 in South 5 mph 8 mph 59% 0 in CLR
05:30 77.4 °F 61.9 °F 30 in SSW 6 mph 8 mph 59% 0 in CLR
05:35 77.4 °F 61.9 °F 30 in SSW 6 mph 6 mph 59% 0 in CLR
05:40 77.4 °F 62.4 °F 30 in SSW 5 mph 7 mph 60% 0 in CLR
05:45 77.2 °F 62.2 °F 30 in SSW 5 mph 8 mph 60% 0 in CLR
05:50 77.4 °F 61.9 °F 30 in SSW 5 mph 7 mph 59% 0 in CLR
05:55 77.2 °F 61.9 °F 30 in SSW 5 mph 7 mph 59% 0 in CLR
06:00 77.2 °F 61.7 °F 30 in SSW 5 mph 8 mph 59% 0 in CLR
06:05 77.2 °F 61.7 °F 30 in SSW 5 mph 7 mph 59% 0 in CLR
06:10 77.2 °F 62.2 °F 30 in SSW 5 mph 7 mph 60% 0 in CLR
06:15 77.2 °F 62.2 °F 30 in SSW 4.7 mph 5.8 mph 60% 0 in CLR
06:20 77.2 °F 62.2 °F 30 in SSW 5 mph 6 mph 60% 0 in CLR
06:25 77.2 °F 62.1 °F 30 in SSW 5 mph 6 mph 60% 0 in CLR
06:30 77 °F 62.1 °F 30 in SSW 3 mph 5 mph 60% 0 in CLR
06:35 77 °F 61.5 °F 30 in SW 3 mph 5 mph 59% 0 in CLR
06:40 76.8 °F 61.3 °F 30 in SW 2 mph 5 mph 59% 0 in CLR
06:45 76.8 °F 61 °F 30 in SW 2 mph 6 mph 58% 0 in CLR
06:50 77 °F 61.5 °F 30 in SSW 5 mph 8 mph 59% 0 in CLR
06:55 76.8 °F 61 °F 30 in SSW 5 mph 10 mph 58% 0 in CLR
07:00 76.8 °F 61 °F 30 in SSW 6 mph 7 mph 58% 0 in CLR
07:05 76.8 °F 61 °F 30 in SSW 6 mph 6 mph 58% 0 in CLR
07:10 76.8 °F 61 °F 30 in SSW 5 mph 7 mph 58% 0 in CLR
07:15 76.8 °F 61 °F 30 in South 5 mph 5 mph 58% 0 in CLR
07:20 76.8 °F 61 °F 30 in SSW 3 mph 6 mph 58% 0 in CLR
07:25 77 °F 61.2 °F 30 in SSW 3 mph 5 mph 58% 0 in CLR
07:30 76.8 °F 60.4 °F 30 in SSW 2 mph 5 mph 57% 0 in CLR
07:35 77 °F 60.6 °F 30 in SSW 2 mph 6 mph 57% 0 in CLR
07:40 77.2 °F 60.8 °F 30 in SSW 3 mph 7 mph 57% 0 in CLR
07:45 77.4 °F 60.8 °F 30 in SSW 3 mph 6 mph 57% 0 in CLR
07:50 77.4 °F 61 °F 30 in SSW 5 mph 6 mph 57% 0 in CLR
07:55 77.5 °F 60.4 °F 30 in SSW 5 mph 7 mph 56% 0 in CLR
08:00 77.5 °F 60.6 °F 30 in SSW 5 mph 7 mph 56% 0 in CLR
08:05 77.5 °F 60.6 °F 30 in SSW 5 mph 8 mph 56% 0 in CLR
08:10 77.7 °F 60.8 °F 30 in SSW 5 mph 9 mph 56% 0 in CLR
08:14 77.5 °F 60.6 °F 30 in SSW 4.7 mph 6.9 mph 56% 0 in CLR
08:20 77.5 °F 60.6 °F 30 in SSW 6 mph 10 mph 56% 0 in CLR
08:25 77.5 °F 60.6 °F 30 in SSW 6 mph 10 mph 56% 0 in CLR
08:30 77.5 °F 60.6 °F 30 in SW 6 mph 10 mph 56% 0 in CLR
08:35 77.7 °F 60.8 °F 30 in SW 6 mph 11 mph 56% 0 in CLR
08:40 77.9 °F 60.4 °F 30 in SW 6 mph 9 mph 55% 0 in CLR
08:45 78.3 °F 60.6 °F 30 in SW 6 mph 9 mph 55% 0 in CLR
08:50 78.3 °F 60.8 °F 30 in WSW 6 mph 9 mph 55% 0 in CLR
08:55 78.4 °F 61 °F 30 in WSW 6 mph 8 mph 55% 0 in CLR
09:00 78.6 °F 61.2 °F 30 in WSW 5 mph 9 mph 55% 0 in CLR
09:05 78.8 °F 60.6 °F 30 in WSW 5 mph 8 mph 54% 0 in CLR
09:10 79 °F 61 °F 30 in West 5 mph 6 mph 54% 0 in CLR
09:15 79.3 °F 60.6 °F 30 in WSW 5 mph 7 mph 53% 0 in CLR
09:20 79.5 °F 60.4 °F 30 in WSW 5 mph 9 mph 52% 0 in CLR
09:25 79.9 °F 60.1 °F 30 in SW 5 mph 9 mph 51% 0 in CLR
09:30 80.1 °F 60.3 °F 30 in SW 5 mph 7 mph 51% 0 in CLR
09:35 80.2 °F 60.6 °F 30 in SW 5 mph 7 mph 51% 0 in CLR
09:40 80.4 °F 60.3 °F 30 in WSW 5 mph 8 mph 50% 0 in CLR
09:45 80.8 °F 60.4 °F 30 in West 5 mph 5 mph 50% 0 in CLR
09:50 81.1 °F 60.6 °F 30 in WSW 3 mph 6 mph 50% 0 in CLR
09:55 81.1 °F 60.6 °F 30 in SW 3 mph 6 mph 50% 0 in CLR
09:59 81.7 °F 60.6 °F 30 in West 3.1 mph 5.8 mph 49% 0 in CLR
10:05 81.9 °F 60.8 °F 30 in WSW 3 mph 5 mph 49% 0 in CLR
10:09 82.4 °F 60.6 °F 30 in West 2 mph 4.6 mph 48% 0 in CLR
10:15 82.8 °F 60.4 °F 30 in WSW 2 mph 5 mph 47% 0 in CLR
10:20 82.9 °F 60.6 °F 30 in West 2 mph 5 mph 47% 0 in CLR
10:25 83.8 °F 60.8 °F 30 in NW 2 mph 5 mph 46% 0 in CLR
10:30 84.6 °F 61 °F 30 in NNE 2 mph 5 mph 45% 0 in CLR
10:35 84.9 °F 60.6 °F 30 in NE 2 mph 7 mph 44% 0 in CLR
10:40 85.3 °F 61 °F 30 in ENE 2 mph 5 mph 44% 0 in CLR
10:45 85.6 °F 62.4 °F 30 in NE 2 mph 10 mph 46% 0 in CLR
10:50 84.9 °F 62.4 °F 30 in NE 5 mph 10 mph 47% 0 in CLR
10:55 85.3 °F 63.3 °F 30 in NE 5 mph 10 mph 48% 0 in CLR
10:59 85.3 °F 64 °F 30 in NNE 4.7 mph 12.7 mph 49% 0 in CLR
11:05 84.9 °F 63.7 °F 30 in NE 5 mph 14 mph 49% 0 in CLR
11:10 84.7 °F 63.5 °F 30 in NNE 7 mph 13 mph 49% 0 in CLR
11:15 85.3 °F 64 °F 30 in NNE 7 mph 12 mph 49% 0 in CLR
11:20 85.6 °F 64.9 °F 30 in NNE 6 mph 16 mph 50% 0 in CLR
11:25 85.6 °F 64.9 °F 30 in NE 6 mph 17 mph 50% 0 in CLR
11:30 86.2 °F 64.8 °F 30 in NE 9 mph 17 mph 49% 0 in CLR
11:35 86.2 °F 64.8 °F 30 in NNE 9 mph 16 mph 49% 0 in CLR
11:40 86.2 °F 64.8 °F 30 in NE 10 mph 16 mph 49% 0 in CLR
11:45 86.5 °F 64.6 °F 30 in NE 10 mph 16 mph 48% 0 in CLR
11:50 87.3 °F 63.3 °F 30 in NE 9 mph 18 mph 45% 0 in CLR
11:54 87.4 °F 60.8 °F 30 in NNE 9.2 mph 24.2 mph 41% 0 in CLR
11:59 87.8 °F 61.2 °F 30 in East 13 mph 15 mph 41% 0 in CLR
12:05 88.2 °F 60.8 °F 30 in NE 13 mph 20 mph 40% 0 in CLR
12:09 88.7 °F 58.3 °F 30 in ENE 10.7 mph 16.1 mph 36% 0 in CLR
12:15 89.2 °F 58.8 °F 30 in ENE 10 mph 18 mph 36% 0 in CLR
12:20 89.8 °F 57.7 °F 30 in NE 12 mph 22 mph 34% 0 in CLR
12:25 89.8 °F 55.9 °F 30 in NE 12 mph 22 mph 32% 0 in CLR
12:30 89.8 °F 55.9 °F 30 in NE 12 mph 19 mph 32% 0 in CLR
12:35 89.8 °F 55.9 °F 30 in NE 12 mph 21 mph 32% 0 in CLR
12:40 90.1 °F 56.3 °F 30 in NE 12 mph 21 mph 32% 0 in CLR
12:45 90 °F 56.1 °F 30 in NE 12 mph 21 mph 32% 0 in CLR
12:50 89.6 °F 56.7 °F 30 in NE 13 mph 21 mph 33% 0 in CLR
12:55 89.8 °F 56.8 °F 30 in ENE 13 mph 20 mph 33% 0 in CLR
13:00 90 °F 56.1 °F 30 in NE 10 mph 24 mph 32% 0 in CLR
13:05 90 °F 56.1 °F 30 in NE 10 mph 18 mph 32% 0 in CLR
13:10 90 °F 57.7 °F 30 in NE 13 mph 24 mph 34% 0 in CLR
13:14 89.2 °F 58.8 °F 30 in ENE 12.3 mph 15 mph 36% 0 in CLR
13:20 89.4 °F 59 °F 30 in NE 13 mph 21 mph 36% 0 in CLR
13:25 89.4 °F 59.7 °F 30 in NE 13 mph 21 mph 37% 0 in CLR
13:29 89.4 °F 59.7 °F 30 in East 12.5 mph 18.4 mph 37% 0 in CLR
13:35 89.4 °F 59.7 °F 30 in NE 13 mph 19 mph 37% 0 in CLR
13:40 89.4 °F 59.7 °F 30 in NE 14 mph 22 mph 37% 0 in CLR
13:45 89.4 °F 60.4 °F 30 in NE 14 mph 22 mph 38% 0 in CLR
13:49 90 °F 60.3 °F 30 in NE 12.3 mph 18.4 mph 37% 0 in CLR
13:55 89.4 °F 59.7 °F 30 in NE 13 mph 24 mph 37% 0 in CLR
14:00 89.8 °F 60.8 °F 30 in NE 13 mph 22 mph 38% 0 in CLR
14:05 90 °F 60.3 °F 30 in NE 13 mph 21 mph 37% 0 in CLR
14:10 90.1 °F 60.4 °F 30 in NE 12 mph 19 mph 37% 0 in CLR
14:14 90.1 °F 59.5 °F 30 in NE 11.4 mph 16.1 mph 36% 0 in CLR
14:20 90.1 °F 59.5 °F 30 in NE 13 mph 22 mph 36% 0 in CLR
14:25 90.7 °F 60.1 °F 30 in NE 13 mph 19 mph 36% 0 in CLR
14:30 90.7 °F 60.1 °F 30 in ENE 10 mph 20 mph 36% 0 in CLR
14:34 90.5 °F 59.9 °F 30 in ESE 10.2 mph 21.9 mph 36% 0 in CLR
14:40 90.3 °F 59 °F 30 in ENE 12 mph 18 mph 35% 0 in CLR
14:45 90.3 °F 59.7 °F 30 in ENE 12 mph 21 mph 36% 0 in CLR
14:50 90.7 °F 60.1 °F 30 in NE 12 mph 19 mph 36% 0 in CLR
14:55 90.7 °F 59.4 °F 30 in ENE 12 mph 21 mph 35% 0 in CLR
15:00 90.7 °F 59.4 °F 30 in NE 12 mph 20 mph 35% 0 in CLR
15:05 90.9 °F 60.3 °F 30 in ENE 12 mph 19 mph 36% 0 in CLR
15:10 91 °F 59.5 °F 30 in ENE 10 mph 20 mph 35% 0 in CLR
15:15 90.9 °F 60.3 °F 30 in ENE 10 mph 22 mph 36% 0 in CLR
15:20 90.5 °F 59.9 °F 30 in ENE 12 mph 21 mph 36% 0 in CLR
15:24 90.7 °F 60.1 °F 30 in SE 11.4 mph 18.4 mph 36% 0 in CLR
15:29 90.5 °F 60.6 °F 30 in ENE 12.3 mph 20.8 mph 37% 0 in CLR
15:34 90.7 °F 61.5 °F 30 in ENE 12.3 mph 17.8 mph 38% 0 in CLR
15:40 91 °F 61.2 °F 30 in ENE 9 mph 18 mph 37% 0 in CLR
15:45 90.5 °F 61.3 °F 30 in ENE 9.7 mph 23 mph 38% 0 in CLR
15:50 90.5 °F 61.3 °F 30 in ENE 12 mph 19 mph 38% 0 in CLR
15:55 90.3 °F 62.1 °F 30 in ENE 12 mph 22 mph 39% 0 in CLR
16:00 90.7 °F 62.4 °F 30 in NE 12 mph 20 mph 39% 0 in CLR
16:05 90.9 °F 62.4 °F 30 in NE 12 mph 22 mph 39% 0 in CLR
16:10 90.3 °F 62.8 °F 30 in NE 10 mph 21 mph 40% 0 in CLR
16:15 90.3 °F 62.8 °F 30 in ENE 10 mph 17 mph 40% 0 in CLR
16:19 90.1 °F 61.9 °F 30 in NE 11.8 mph 20.7 mph 39% 0 in CLR
16:24 90.3 °F 61.3 °F 30 in NE 11.8 mph 24.2 mph 38% 0 in CLR
16:30 90.3 °F 61.2 °F 30 in NE 12 mph 22 mph 38% 0 in CLR
16:35 90.3 °F 58.8 °F 30 in NE 12 mph 22 mph 35% 0 in CLR
16:39 90 °F 59.4 °F 30 in ENE 14.7 mph 21.9 mph 36% 0 in CLR
16:44 90.1 °F 59.5 °F 30 in NE 14.7 mph 26.5 mph 36% 0 in CLR
16:50 90 °F 60.3 °F 30 in NE 13 mph 27 mph 37% 0 in CLR
16:55 89.8 °F 60.1 °F 30 in NE 13 mph 27 mph 37% 0 in CLR
16:59 90 °F 60.3 °F 30 in NE 13.7 mph 20.7 mph 37% 0 in CLR
17:05 90 °F 60.3 °F 30 in NE 14 mph 22 mph 37% 0 in CLR
17:10 90 °F 60.3 °F 30 in NE 13 mph 23 mph 37% 0 in CLR
17:14 90.1 °F 60.4 °F 30 in NE 13 mph 17.3 mph 37% 0 in CLR
17:19 90 °F 60.3 °F 30 in ENE 12.5 mph 19.2 mph 37% 0 in CLR
17:25 89.8 °F 60.1 °F 30 in NE 13 mph 24 mph 37% 0 in CLR
17:29 89.4 °F 59.7 °F 30 in East 14 mph 21.9 mph 37% 0 in CLR
17:34 89.4 °F 59 °F 30 in NE 14 mph 19.6 mph 36% 0 in CLR
17:39 89.2 °F 59.5 °F 30 in NE 15.2 mph 24.2 mph 37% 0 in CLR
17:45 89.4 °F 59.7 °F 30 in NE 15 mph 22 mph 37% 0 in CLR
17:49 89.4 °F 59.7 °F 30 in ENE 13.5 mph 18.4 mph 37% 0 in CLR
17:54 90 °F 61 °F 30 in North 13.5 mph 13.8 mph 38% 0 in CLR
17:59 90 °F 59.4 °F 30 in NNE 10 mph 18.5 mph 36% 0 in CLR
18:04 89.4 °F 60.4 °F 30 in NNE 10 mph 15.6 mph 38% 0 in CLR
18:10 89.6 °F 60.6 °F 30 in NE 13 mph 21 mph 38% 0 in CLR
18:14 89.2 °F 60.3 °F 30 in ENE 12.5 mph 25.3 mph 38% 0 in CLR
18:19 89.2 °F 60.3 °F 30 in NNE 13 mph 19.2 mph 38% 0 in CLR
18:24 89.1 °F 60.1 °F 30 in North 13 mph 26.5 mph 38% 0 in CLR
18:29 88.9 °F 60.1 °F 30 in ENE 14.7 mph 21.9 mph 38% 0 in CLR
18:35 88.5 °F 60.4 °F 30 in NE 15 mph 23 mph 39% 0 in CLR
18:40 88.5 °F 60.4 °F 30 in NE 15 mph 26 mph 39% 0 in CLR
18:44 88.3 °F 61 °F 30 in NE 15.2 mph 25.3 mph 40% 0 in CLR
18:50 88.2 °F 60.8 °F 30 in NE 15 mph 24 mph 40% 0 in CLR
18:55 88 °F 60.6 °F 30 in NE 15 mph 23 mph 40% 0 in CLR
18:59 88 °F 61.3 °F 30 in NE 13.7 mph 20.7 mph 41% 0 in CLR
19:04 87.8 °F 61.2 °F 30 in ENE 13.7 mph 18.4 mph 41% 0 in CLR
19:09 87.6 °F 61 °F 30 in South 13.7 mph 19.2 mph 41% 0 in CLR
19:15 87.4 °F 61.5 °F 30 in NE 14 mph 26 mph 42% 0 in CLR
19:19 87.4 °F 61.5 °F 30 in NNE 14.5 mph 17.3 mph 42% 0 in CLR
19:24 87.3 °F 61.3 °F 30 in ENE 14.5 mph 18.4 mph 42% 0 in CLR
19:30 87.3 °F 61.3 °F 30 in NE 13 mph 20 mph 42% 0 in CLR
19:34 87.3 °F 62.1 °F 30 in East 12.3 mph 17.3 mph 43% 0 in CLR
19:39 87.1 °F 61.9 °F 30 in North 10.7 mph 14 mph 43% 0 in CLR
19:44 87.1 °F 62.4 °F 30 in ENE 10.7 mph 12.7 mph 44% 0 in CLR
19:49 87.1 °F 61.9 °F 30 in NNE 10.7 mph 20.1 mph 43% 0 in CLR
19:54 86.7 °F 61.5 °F 30 in NE 10.7 mph 15 mph 43% 0 in CLR
19:59 86.5 °F 62.1 °F 30 in NE 12.5 mph 18.4 mph 44% 0 in CLR
20:04 86.4 °F 61.9 °F 30 in ENE 12.5 mph 15 mph 44% 0 in CLR
20:09 86.4 °F 61.9 °F 30 in NE 10.7 mph 17 mph 44% 0 in CLR
20:14 86.4 °F 62.4 °F 30 in NE 10.7 mph 15 mph 45% 0 in CLR
20:20 86.4 °F 63.9 °F 30 in ENE 8 mph 12 mph 47% 0 in CLR
20:24 86.2 °F 63.7 °F 30 in NNE 8.5 mph 12.3 mph 47% 0 in CLR
20:29 85.8 °F 63.3 °F 30 in East 6.2 mph 11.5 mph 47% 0 in CLR
20:34 85.6 °F 63.7 °F 30 in ENE 6.2 mph 10.4 mph 48% 0 in CLR
20:39 85.5 °F 64 °F 30 in ENE 7.4 mph 12.7 mph 49% 0 in CLR
20:44 85.3 °F 64 °F 30 in NNE 7.4 mph 6.9 mph 49% 0 in CLR
20:49 85.1 °F 64.4 °F 30 in ESE 6.2 mph 13.8 mph 50% 0 in CLR
20:54 84.7 °F 64.6 °F 30 in NNE 6.2 mph 15 mph 51% 0 in CLR
20:59 84.6 °F 64.9 °F 30 in ENE 8.5 mph 9.2 mph 52% 0 in CLR
21:05 84.4 °F 64.8 °F 30 in ENE 8 mph 14 mph 52% 0 in CLR
21:09 84 °F 64.9 °F 30 in ENE 6.4 mph 12.7 mph 53% 0 in CLR
21:15 83.8 °F 65.5 °F 30 in NE 7 mph 14 mph 54% 0 in CLR
21:19 83.7 °F 65.8 °F 30 in East 8.1 mph 10.4 mph 55% 0 in CLR
21:24 83.5 °F 66 °F 30 in NE 8.1 mph 15 mph 56% 0 in CLR
21:30 83.1 °F 65.8 °F 30 in NE 8 mph 12 mph 56% 0 in CLR
21:34 82.9 °F 66.6 °F 30 in NE 7.6 mph 9.2 mph 58% 0 in CLR
21:40 82.8 °F 66.6 °F 30 in NE 7 mph 16 mph 58% 0 in CLR
21:45 82.6 °F 66.7 °F 30 in NE 7 mph 10 mph 59% 0 in CLR
21:50 82.4 °F 67.1 °F 30.1 in NE 5 mph 8 mph 60% 0 in CLR
21:54 82.2 °F 66.9 °F 30.1 in ENE 5.2 mph 8.1 mph 60% 0 in CLR
21:59 82 °F 67.3 °F 30.1 in NNE 5.2 mph 8.1 mph 61% 0 in CLR
22:04 81.9 °F 67.6 °F 30.1 in NE 5.2 mph 9.2 mph 62% 0 in CLR
22:09 81.7 °F 67.8 °F 30.1 in ENE 6.2 mph 10.2 mph 63% 0 in CLR
22:14 81.3 °F 68 °F 30.1 in NE 6.2 mph 13.7 mph 64% 0 in CLR
22:19 81.1 °F 68.4 °F 30.1 in ENE 6.9 mph 12.7 mph 65% 0 in CLR
22:24 81.1 °F 68.7 °F 30.1 in ENE 6.9 mph 10.4 mph 66% 0 in CLR
22:29 81 °F 68.5 °F 30.1 in NNE 8.1 mph 11.5 mph 66% 0 in CLR
22:34 80.8 °F 68.7 °F 30.1 in NE 8.1 mph 13.8 mph 67% 0 in CLR
22:39 80.6 °F 68.5 °F 30.1 in ENE 8.5 mph 11.8 mph 67% 0 in CLR
22:44 80.4 °F 68.9 °F 30.1 in North 8.5 mph 9.2 mph 68% 0 in CLR
22:49 80.4 °F 68.9 °F 30.1 in NE 6.9 mph 6.9 mph 68% 0 in CLR
22:55 80.4 °F 69.3 °F 30.1 in NE 6.9 mph 11.5 mph 69% 0 in CLR
22:59 80.2 °F 69.1 °F 30.1 in NE 6.2 mph 9.2 mph 69% 0 in CLR
23:04 80.1 °F 69.1 °F 30.1 in NE 6.2 mph 10.4 mph 69% 0 in CLR
23:09 80.1 °F 69.1 °F 30.1 in NE 6.2 mph 6.9 mph 69% 0 in CLR
23:14 80.1 °F 69.4 °F 30.1 in NE 6.2 mph 6.2 mph 70% 0 in CLR
23:19 79.9 °F 69.3 °F 30.1 in ENE 5.2 mph 9.2 mph 70% 0 in CLR
23:24 79.9 °F 69.3 °F 30.1 in NNE 5.2 mph 6.9 mph 70% 0 in CLR
23:29 79.9 °F 68.7 °F 30.1 in ENE 5.4 mph 6.4 mph 69% 0 in CLR
23:34 79.9 °F 68.7 °F 30.1 in NE 5.4 mph 6.9 mph 69% 0 in CLR
23:39 79.9 °F 68.7 °F 30.1 in NE 4.7 mph 6.9 mph 69% 0 in CLR
23:44 79.9 °F 68.4 °F 30.1 in NE 4.7 mph 8.1 mph 68% 0 in CLR
23:49 79.9 °F 67.8 °F 30.1 in NNE 5.4 mph 6.9 mph 67% 0 in CLR
23:54 79.9 °F 67.5 °F 30.1 in NNE 5.4 mph 9.2 mph 66% 0 in CLR
23:59 79.9 °F 67.5 °F 30.1 in NE 5.9 mph 6.2 mph 66% 0 in CLR
Murcia-Puente Tocinos, España
Compliments of Weather Underground - 2.75 mb

La estación de MeteoMurcia.com, publica sus datos en los siguientes proyectos:

Weather Underground PWS IMURCIAP2 Meteoclimatic www.awekas.at

W3Counter
Web Analytics